Simultaneous Nadir Overpasses (SNOs) Predictions

Prediction of SNOs between AURA and NPP Satellite Orbit:

Table of predicted SNOs for the next 14.0 days since TLE Epoch: 8/29/2014
Index Date (AURA) Time (AURA) Lat,Lon (AURA) SZA (AURA ) Date (NPP) Time (NPP) Lat,Lon (NPP) SZA (NPP ) Distance(km) Time Diff (sec)
1 08/31/2014 05:42:57 -67.61, 140.69 82.98 08/31/2014 05:41:43 -67.76, 139.90 82.79 37.22 74
2 08/31/2014 06:29:54 75.53, -37.66 88.84 08/31/2014 06:29:55 75.53, -37.70 88.85 1.07 1
3 08/31/2014 07:16:43 -81.49, 170.21 99.92 08/31/2014 07:17:57 -81.05, 170.86 100.13 50.29 74
4 09/02/2014 21:57:07 -74.90, -91.12 89.58 09/02/2014 21:56:24 -74.90, -91.13 89.53 0.41 43
5 09/02/2014 22:46:12 75.91, 79.33 89.33 09/02/2014 22:46:47 75.90, 79.28 89.31 1.46 35
6 09/05/2014 14:13:20 -75.51, 26.41 89.33 09/05/2014 14:13:11 -75.51, 26.46 89.33 1.69 9
7 09/05/2014 15:02:27 76.40,-163.23 89.69 09/05/2014 15:03:36 76.40,-163.20 89.62 0.88 69
8 09/08/2014 05:40:36 74.48, -28.02 92.71 09/08/2014 05:39:46 74.47, -28.09 92.78 2.39 50
9 09/08/2014 06:29:37 -75.83, 143.24 88.76 09/08/2014 06:30:03 -75.83, 143.26 88.79 0.60 26
10 09/10/2014 21:56:48 75.09, 89.43 92.99 09/10/2014 21:56:33 75.08, 89.39 93.01 1.40 15




NCC Satellite Simultaneous Nadir Overpasses (SNOs) Prediction Service
